Regional Weather Roundup
Issued by NWS Sterling, VA

Home | Current Version | Previous Version | Graphics & Text | Print | Product List | Glossary On
Versions: 1 2 3 4 5 6 7 8 9 10 11 12 13 14 15 16 17 18 19 20 21 22 23 24 25 26 27 28
000
ASUS41 KLWX 241210
RWRLWX

REGIONAL WEATHER ROUNDUP
NATIONAL WEATHER SERVICE BALTIMORE MD/WASHINGTON DC
800 AM EDT SUN JUL 24 2016

Note: "FAIR" indicates few or no clouds below 12,000 feet
with no significant weather and/or obstructions to visibility.
 TC=TEMPERATURE CELSIUS

 * =Non NWS site. Station does not report precipitation (e.g. rain,
    snow, etc.), thunder, or fog.

DCZ001-MDZ009-015-VAZ040>042-051-053>054-241300-
WASHINGTON METRO

CITY           SKY/WX    TMP DP  RH WIND       PRES   REMARKS
WASHINGTON NAT FAIR      82  68  62 NE7       30.00R
DULLES         FAIR      81  69  67 N5        30.01R
ANDREWS AFB    SUNNY     79  69  70 NE7       29.99R
FT BELVOIR     FAIR      81  69  65 VRB3      29.99R
QUANTICO       FAIR      83  69  62 N6        30.00R
COLLEGE PARK*  FAIR      77  68  73 CALM      29.99S
LEESBURG*      FAIR      81  73  78 N3        30.03S
MANASSAS*      SUNNY     81  73  78 N7        30.00R
GAITHERSBURG*  SUNNY     75  66  73 CALM      30.06R

$$

MDZ006>007-011-014-241300-
BALTIMORE METRO

CITY           SKY/WX    TMP DP  RH WIND       PRES   REMARKS
BWI AIRPORT    MOSUNNY   81  65  58 N3        29.99R
MD SCIENCE CTR   N/A     83  63  50 MISG      29.99S
MARTIN STATE   MOSUNNY   79  70  73 CALM      30.01R
ANNAPOLIS      SUNNY     83  69  62 CALM      29.98R
FORT MEADE*    SUNNY     72  70  94 CALM      30.02R

$$

MDZ012-015-019>023-241300-
MARYLAND EASTERN SHORE

CITY           SKY/WX    TMP DP  RH WIND       PRES   REMARKS
OCEAN CITY     SUNNY     81  74  79 N5        29.97R
SALISBURY      SUNNY     81  75  82 NE5       29.97R
BAY BRIDGE AP* SUNNY     81  72  74 CALM      29.98R
CAMBRIDGE*     SUNNY     77  72  83 CALM      29.97R
EASTON*        SUNNY     79  75  89 NE6       30.01R

$$

MDZ017>025-241300-
SOUTHERN MARYLAND

CITY           SKY/WX    TMP DP  RH WIND       PRES   REMARKS
PATUXENT RIVER MOSUNNY   83  72  69 NE8       29.97R
ST INIGOES     SUNNY     84  75  74 NE6       29.96R HX  92
LEONARDTOWN*   SUNNY     81  72  74 NE3       29.99S

$$

MDZ003>005-241300-
NORTH CENTRAL MARYLAND

CITY           SKY/WX    TMP DP  RH WIND       PRES   REMARKS
FREDERICK*     SUNNY     73  73 100 CALM      30.05R
HAGERSTOWN APT MOSUNNY   76  64  66 E3        30.03S

$$

MDZ501>502-241300-
WESTERN MARYLAND

CITY           SKY/WX    TMP DP  RH WIND       PRES   REMARKS
OAKLAND*       SUNNY     72  70  94 CALM      30.15S
CUMBERLAND*    CLOUDY    73  70  88 CALM      30.08S

$$

VAZ025>031-241300-
SHENANDOAH VALLEY

CITY           SKY/WX    TMP DP  RH WIND       PRES   REMARKS
WINCHESTER*    CLOUDY    77  70  78 CALM      30.03F
FRONT ROYAL*   FAIR      75  72  88 CALM      30.03S
LURAY*         FAIR      73  73 100 CALM      30.05S
NEW MARKET*    FAIR     N/A N/A N/A CALM      30.04S
STAUNTON*      FAIR      72  70  93 CALM      30.08F
WAYNESBORO*    FAIR      73  69  85 CALM      30.08S

$$

WVZ021-048>050-054>055-241300-
EASTERN WEST VIRGINIA PANHANDLE

CITY           SKY/WX    TMP DP  RH WIND       PRES   REMARKS
MARTINSBURG    FAIR      73  70  90 CALM      30.03R
PETERSBURG*    FAIR      74  70  88 CALM      30.05F

$$

VAZ036>039-050-241300-
CENTRAL FOOTHILLS

CITY           SKY/WX    TMP DP  RH WIND       PRES   REMARKS
CHARLOTTESVILL FAIR      79  72  79 CALM      30.02R
CULPEPER*      FAIR      80  74  82 N3        30.02R
ORANGE*          N/A     81  73  78 CALM      30.02S
GORDONSVILLE*  FAIR      78  74  87 CALM      30.00S
WARRENTON*     FAIR      80  68  66 CALM      30.01R

$$

VAZ055>057-241300-
NORTH AND CENTRAL PIEDMONT

CITY           SKY/WX    TMP DP  RH WIND       PRES   REMARKS
FREDERICKSBRG* FAIR      81  73  77 N3        29.98S
STAFFORD*      FAIR      82  69  66 N5        30.03S

$$

NCZ024-NYZ072-PAZ021-071-VAZ022-071-241300-
OTHER REGIONAL OBSERVATIONS

CITY           SKY/WX    TMP DP  RH WIND       PRES   REMARKS
NEW YORK CITY  SUNNY     79  61  53 VRB3      30.01S
PHILADELPHIA   MOSUNNY   80  64  58 N5        30.00R
PITTSBURGH     PTSUNNY   71  67  87 CALM      30.03F
ROANOKE        FAIR      77  69  76 NW3       30.09R
RICHMOND       PTSUNNY   81  75  82 W3        29.99R
RALEIGH        PTSUNNY   78  75  90 SW6       30.02S

$$

ANZ530>537-241300-
MARINE OBSERVATIONS

STATION/POSITION TIME  TEMP    WIND        PRES
                       AIR SEA DIR/SP/G
                 (UTC) (F)     (DEG/KT/KT) (MB)
THOMAS PT LIGHT  1200   80 82   10/  6/  6 1016.9R
BALT KEY BRIDGE  1148   80      20/  7/  8 1015.4R
COVE POINT       1148   81      90/  5/  7 1015.6R
LEWISETTA        1148   82 85  300/  3/  4 1014.4R
SOLOMONS ISLAND  1148   82 84   40/  7/  9   N/A
PINEY POINT      1148           70/  2/  3   N/A

$$





USA.gov is the U.S. government's official web portal to all federal, state and local government web resources and services.